Home   Weather   Aliso Viejo   Past weeks

Flag for USA Past Weather in Aliso Viejo, California, USA — Yesterday and Last 2 Weeks

Now
60 °F

Fog.


Feels Like: 60 °F
Forecast: 58 / 64 °F
Wind: 5 mph from Southwest

Location: John Wayne Airport-Orange County Airport

Current Time: Dec 10, 2016 at 8:20:56 pm

Latest Report: Dec 10, 2016 at 7:53 pm


Visibility: 6 mi

Pressure: 30.12 "Hg

Humidity: 90%

Dew Point: 57 °F

Location of Aliso ViejoLocation

Past Weather in Aliso Viejo — Graph

°F

Aliso Viejo Temperature Yesterday

Maximum temperature yesterday: 64 °F (at 2:53 pm)
Minimum temperature yesterday: 52 °F (at 2:53 am)
Average temperature yesterday: 58 °F

High & Low Weather Summary for the Past Weeks

 TemperatureHumidityPressure
High72 °F (Nov 29, 12:53 pm)97% (Dec 5, 5:53 am)30.28 "Hg (Dec 5, 5:53 am)
Low44 °F (Nov 26, 4:53 am)11% (Dec 3, 1:53 pm)29.83 "Hg (Nov 28, 4:53 pm)
Average57 °F64%30.04 "Hg
* Reported Nov 25 6:53 pm — Dec 10 6:53 pm, Aliso Viejo, Weather by CustomWeather, © 2016

Note: Actual official high and low records may vary slightly from our data, if they occured in-between our weather recording intervals... More about our weather records

Advertising

Aliso Viejo Weather History for the Previous 24 Hours

Scroll right to see more
 ConditionsComfort  
Time TempWeatherWind HumidityBarometerVisibility
6:53 pm
Sat, Dec 10
60 °FFog.No wind90%30.11 "Hg6 mi
5:53 pm59 °FFog.5 mph93%30.09 "Hg6 mi
4:53 pm61 °FFog.5 mph87%30.09 "Hg6 mi
3:53 pm62 °FPartly sunny.6 mph83%30.10 "Hg9 mi
2:53 pm61 °FOvercast.5 mph90%30.10 "Hg10 mi
1:53 pm62 °FOvercast.7 mph86%30.11 "Hg10 mi
12:53 pm62 °FOvercast.8 mph86%30.13 "Hg10 mi
11:53 am64 °FOvercast.7 mph75%30.15 "Hg9 mi
10:53 am63 °FOvercast.7 mph78%30.17 "Hg7 mi
9:53 am61 °FOvercast.5 mph87%30.19 "Hg7 mi
8:53 am60 °FFog.No wind90%30.19 "Hg5 mi
7:53 am60 °FFog.5 mph86%30.16 "Hg6 mi
6:53 am59 °FFog.5 mph90%30.15 "Hg5 mi
5:53 am58 °FFog.7 mph93%30.14 "Hg5 mi
5:02 am58 °FFog.7 mph93%30.15 "Hg4 mi
3:53 am58 °FFog.7 mph97%30.15 "Hg3 mi
2:53 am59 °FOvercast.No wind93%30.15 "Hg7 mi
1:53 am60 °FFog.6 mph86%30.14 "Hg6 mi
12:53 am60 °FFog.5 mph86%30.16 "Hg6 mi
11:53 pm
Fri, Dec 9
60 °FFog.No wind90%30.17 "Hg6 mi
10:53 pm60 °FFog.3 mph90%30.20 "Hg6 mi
9:53 pm60 °FFog.No wind96%30.19 "Hg4 mi
8:53 pm60 °FFog.No wind90%30.17 "Hg6 mi
Weather by CustomWeather, © 2016

See weather overviewHow to use our weather pages